[[{"header":{"parameterUnit":"m.s-1","parameterCategory":1,"la1":30.2991,"la2":30.254,"lo1":-89.0895,"lo2":-89.0444,"dy":0.0017,"dx":0.0017,"nx":28,"ny":28,"refTime":"2025-06-23T03:00:00:Z","depth":0,"parameterNumber":2,"parameterNumberName":"U-component_of_WINDS"},"data":[0,0,0,0,0,0,0,0,0,0,0,0,0,0,0,0,0,0,0,0,0,0,0,0,0,0,0,0,0,0,0,0,0,0,0,0,0,0,0,0,0,0,0,0,0,0,0,0,0,0,0,0,0,0,0,0,0,0,-0.1659,-0.1659,0,-0.1682,-0.1682,-0.1682,-0.167,-0.1669,-0.1669,-0.1668,-0.1694,-0.1695,-0.1696,0,0,0,0,0,0,0,0,0,0,0,0,0,-0.1605,-0.1606,-0.1659,-0.1659,-0.1659,-0.1682,-0.1682,-0.1683,-0.167,-0.1669,-0.1668,-0.1668,-0.1693,-0.1695,-0.1696,0,0,0,0,0,0,0,0,0,0,0,0,0,-0.1628,-0.1606,-0.1659,-0.1656,-0.1655,-0.1682,-0.1682,-0.1683,-0.167,-0.1669,-0.1668,-0.1667,-0.1693,-0.1695,-0.1696,-0.1728,0,0,-0.1702,-0.1703,0,0,0,0,0,0,0,0,-0.1627,-0.163,-0.1656,-0.1656,-0.1656,-0.1672,-0.1673,-0.1698,-0.167,-0.1665,-0.1668,-0.1667,-0.1687,-0.169,-0.1696,-0.1729,-0.173,-0.1703,-0.1704,-0.1705,-0.1705,0,0,0,0,0,0,0,-0.1625,-0.1629,-0.1668,-0.1656,-0.1656,-0.1654,-0.1656,-0.1677,-0.1681,-0.1665,-0.1664,-0.1667,-0.1687,-0.1694,-0.1697,-0.173,-0.1702,-0.1704,-0.1705,-0.1706,-0.179,-0.1791,0,0,0,0,0,0,-0.1624,-0.1628,-0.1667,-0.1669,-0.1639,-0.1655,-0.1658,-0.1668,-0.1681,-0.1682,-0.1668,-0.1666,-0.1692,-0.1694,-0.1698,-0.1735,-0.1704,-0.1706,-0.1707,-0.1789,-0.179,-0.1791,0,0,0,0,0,0,-0.1622,-0.1627,-0.1666,-0.1648,-0.1653,-0.1657,-0.1669,-0.1669,-0.1676,-0.1683,-0.1684,-0.1674,-0.1691,-0.1695,-0.172,-0.1736,-0.1707,-0.1709,-0.1788,-0.1789,-0.1791,-0.1811,0,0,0,0,0,0,-0.1621,-0.1627,-0.1638,-0.1648,-0.1654,-0.1688,-0.1669,-0.167,-0.1679,-0.1677,-0.1689,-0.169,-0.169,-0.1717,-0.1722,-0.1738,-0.171,-0.1786,-0.1789,-0.179,-0.1809,-0.1813,-0.1816,0,0,0,0,0,-0.1619,-0.1643,-0.1639,-0.1644,-0.1668,-0.1689,-0.1692,-0.1691,-0.168,-0.1692,-0.1697,-0.169,-0.1733,-0.172,-0.1725,-0.1742,-0.1785,-0.1788,-0.179,-0.1807,-0.1812,-0.1816,0,0,0,0,0,0,-0.1636,-0.1645,-0.164,-0.1668,-0.1678,-0.1687,-0.1702,-0.1697,-0.171,-0.1708,-0.1707,-0.171,-0.1736,-0.1742,-0.1727,-0.1773,-0.1758,-0.1761,-0.1769,-0.1773,-0.1777,-0.1776,-0.1712,0,0,0,0,0,-0.1643,-0.1658,-0.1665,-0.1689,-0.1694,-0.1697,-0.1706,-0.1705,-0.1715,-0.1719,-0.1726,-0.1736,-0.1753,-0.1763,-0.1778,-0.1809,-0.1812,-0.1823,-0.1827,-0.183,-0.1834,-0.1851,-0.1856,-0.1799,-0.1799,-0.1799,0,0,-0.1657,-0.1664,-0.1674,-0.1693,-0.17,-0.1717,-0.1701,-0.1719,-0.1732,-0.1722,-0.1747,-0.1752,-0.1764,-0.1792,-0.1805,-0.1797,-0.185,-0.1833,-0.1836,-0.1837,-0.1854,-0.1859,-0.1864,-0.1801,-0.1801,-0.1801,0,0,-0.1692,-0.1699,-0.172,-0.1727,-0.1738,-0.174,-0.1745,-0.1755,-0.1758,-0.1782,-0.1775,-0.179,-0.1818,-0.1827,-0.1835,-0.1873,-0.1868,-0.1878,-0.1899,-0.1915,-0.192,-0.1924,-0.1938,-0.1943,-0.1881,-0.1881,-0.1882,0,-0.1709,-0.1734,-0.1731,-0.175,-0.1759,-0.175,-0.1772,-0.1779,-0.1795,-0.1802,-0.1793,-0.1828,-0.1835,-0.1865,-0.1875,-0.1881,-0.1888,-0.1877,-0.1919,-0.1923,-0.1927,-0.194,-0.1946,-0.1883,-0.1883,-0.1882,-0.1882,0,-0.1754,-0.1771,-0.1787,-0.1802,-0.1812,-0.1833,-0.1834,-0.1845,-0.1842,-0.1845,-0.187,-0.1878,-0.1895,-0.1902,-0.19,-0.1933,-0.1928,-0.1919,-0.1904,-0.1933,-0.1946,-0.1951,-0.1884,-0.1884,-0.1884,-0.1883,0,0,-0.1801,-0.1814,-0.182,-0.1827,-0.1838,-0.1852,-0.1872,-0.1888,-0.1897,-0.1908,-0.1926,-0.1949,-0.1941,-0.195,-0.1949,-0.1964,-0.1994,-0.1953,-0.1954,-0.1961,-0.2031,-0.2038,-0.2044,-0.199,-0.1991,-0.1992,-0.203,0,-0.1838,-0.1872,-0.187,-0.1903,-0.1919,-0.1911,-0.1928,-0.1937,-0.194,-0.1955,-0.1958,-0.1975,-0.1963,-0.1969,-0.1983,-0.1987,-0.2008,-0.1985,-0.2007,-0.2008,-0.2005,-0.2051,-0.2058,-0.2094,-0.2035,-0.2036,-0.2037,0,-0.1885,-0.1897,-0.1931,-0.194,-0.1947,-0.1963,-0.1977,-0.1991,-0.2001,-0.2003,-0.2013,-0.2009,-0.203,-0.2013,-0.2042,-0.2026,-0.2035,-0.2039,-0.204,-0.2043,-0.2025,-0.2055,-0.2105,-0.2111,-0.2044,-0.2044,-0.2043,0,-0.1917,-0.1942,-0.1965,-0.1971,-0.1982,-0.1994,-0.1999,-0.2008,-0.2018,-0.2031,-0.2037,-0.2052,-0.2061,-0.2073,-0.2074,-0.2062,-0.2103,-0.2087,-0.2106,-0.2106,-0.2115,-0.2115,-0.2168,-0.212,-0.212,-0.212,-0.212,0,-0.1958,-0.198,-0.198,-0.1994,-0.2018,-0.2016,-0.2039,-0.2044,-0.2052,-0.2068,-0.2061,-0.2077,-0.2076,-0.2092,-0.2092,-0.2117,-0.212,-0.2122,-0.2123,-0.2123,-0.2123,-0.213,-0.2128,-0.2121,-0.2121,-0.2121,-0.212,0,-0.1998,-0.1999,-0.2024,-0.2032,-0.2035,-0.2052,-0.206,-0.2074,-0.2076,-0.2096,-0.21,-0.2104,-0.2122,-0.2124,-0.2144,-0.2145,-0.2174,-0.2171,-0.2171,-0.2171,-0.219,-0.2188,-0.225,-0.2258,-0.2203,-0.2204,-0.2204,0,-0.2025,-0.2041,-0.2051,-0.2061,-0.2066,-0.2082,-0.2092,-0.209,-0.2101,-0.2114,-0.2127,-0.2143,-0.2157,-0.2186,-0.2191,-0.2207,-0.2205,-0.2225,-0.2207,-0.2208,-0.2206,-0.2205,-0.2207,-0.2229,-0.223,-0.223,-0.2231,0,-0.2073,-0.2072,-0.2086,-0.21,-0.2112,-0.2123,-0.2133,-0.2142,-0.2142,-0.2154,-0.2172,-0.2182,-0.2203,-0.222,-0.2236,-0.2242,-0.2237,-0.2236,-0.2241,-0.2243,-0.2242,-0.2244,-0.2181,-0.2235,-0.2234,-0.2234,-0.2234,-0.2234,-0.2108,-0.2122,-0.2131,-0.2146,-0.2154,-0.2164,-0.2177,-0.2181,-0.2196,-0.2212,-0.221,-0.223,-0.224,-0.2261,-0.2268,-0.2284,-0.2277,-0.2284,-0.2286,-0.2289,-0.2291,-0.2239,-0.2286,-0.2286,-0.2286,-0.2286,-0.2286,0,-0.2156,-0.2161,-0.2175,-0.219,-0.2202,-0.2195,-0.2206,-0.2217,-0.2235,-0.2244,-0.2258,-0.2278,-0.2295,-0.2301,-0.2317,-0.2329,-0.2327,-0.2333,-0.2333,-0.2334,-0.2296,-0.229,-0.2334,-0.2334,-0.2334,-0.2334,-0.2334,-0.2334,-0.2183,-0.2206,-0.2207,-0.2234,-0.2239,-0.2258,-0.2265,-0.2274,-0.2281,-0.2305,-0.2318,-0.2321,-0.233,-0.2347,-0.2362,-0.2363,-0.237,-0.2377,-0.2378,-0.2342,-0.2337,-0.2332,-0.2327,-0.2379,-0.2379,-0.2415,-0.2416,-0.2416]},{"header":{"parameterUnit":"m.s-1","parameterCategory":1,"la1":30.2991,"la2":30.254,"lo1":-89.0895,"lo2":-89.0444,"dy":0.0017,"dx":0.0017,"nx":28,"ny":28,"refTime":"2025-06-23T03:00:00:Z","depth":0,"parameterNumber":3,"parameterNumberName":"V-component_of_WINDS"},"data":[0,0,0,0,0,0,0,0,0,0,0,0,0,0,0,0,0,0,0,0,0,0,0,0,0,0,0,0,0,0,0,0,0,0,0,0,0,0,0,0,0,0,0,0,0,0,0,0,0,0,0,0,0,0,0,0,0,0,1.4131,1.4131,0,1.413,1.413,1.413,1.4082,1.4081,1.4079,1.4078,1.4077,1.4078,1.4079,0,0,0,0,0,0,0,0,0,0,0,0,0,1.4091,1.4092,1.4131,1.4131,1.4131,1.413,1.413,1.413,1.4082,1.4081,1.4079,1.4078,1.4077,1.4078,1.408,0,0,0,0,0,0,0,0,0,0,0,0,0,1.4101,1.4093,1.4131,1.4107,1.4105,1.413,1.413,1.413,1.4082,1.4081,1.4079,1.4077,1.4076,1.4078,1.408,1.4128,0,0,1.4085,1.4086,0,0,0,0,0,0,0,0,1.4101,1.4103,1.4111,1.4109,1.4107,1.4104,1.4115,1.4129,1.4083,1.4091,1.4078,1.4076,1.4088,1.4088,1.4092,1.4128,1.4128,1.4085,1.4086,1.4087,1.4087,0,0,0,0,0,0,0,1.41,1.4103,1.4131,1.4111,1.4108,1.4096,1.4096,1.4118,1.41,1.409,1.4087,1.4087,1.4086,1.4091,1.4092,1.4128,1.4085,1.4087,1.4088,1.4088,1.4199,1.4201,0,0,0,0,0,0,1.4103,1.4102,1.4131,1.4131,1.4099,1.4098,1.4098,1.4107,1.41,1.4097,1.4089,1.4085,1.4089,1.409,1.4092,1.4145,1.4087,1.4088,1.4089,1.4197,1.42,1.4202,0,0,0,0,0,0,1.4102,1.4106,1.4131,1.4116,1.4118,1.4101,1.4112,1.4108,1.4112,1.4098,1.4095,1.4097,1.4087,1.4089,1.4118,1.4145,1.4089,1.4091,1.4195,1.4198,1.4201,1.4255,0,0,0,0,0,0,1.4101,1.4106,1.4124,1.4116,1.4119,1.4158,1.4113,1.4109,1.4115,1.411,1.4105,1.4102,1.4086,1.4116,1.412,1.4146,1.4092,1.4193,1.4197,1.42,1.4251,1.4259,1.4267,0,0,0,0,0,1.41,1.414,1.4126,1.4129,1.4142,1.416,1.4161,1.4142,1.4118,1.4136,1.4126,1.4103,1.4141,1.412,1.4124,1.4151,1.4191,1.4195,1.42,1.4247,1.4257,1.4266,0,0,0,0,0,0,1.4153,1.4139,1.4123,1.4161,1.4162,1.4152,1.4174,1.4154,1.4162,1.4157,1.4132,1.4131,1.4164,1.416,1.4136,1.4195,1.4162,1.4167,1.4196,1.4206,1.4214,1.4214,1.4093,0,0,0,0,0,1.4169,1.4185,1.4172,1.4208,1.4209,1.4191,1.4199,1.4183,1.4183,1.4183,1.4176,1.4177,1.4189,1.4197,1.4208,1.425,1.4247,1.427,1.4278,1.4285,1.429,1.4309,1.4319,1.4216,1.4216,1.4216,0,0,1.4202,1.4197,1.4209,1.4218,1.4217,1.4233,1.4192,1.4212,1.4224,1.4186,1.4213,1.4208,1.4207,1.4242,1.4257,1.424,1.4317,1.429,1.4296,1.4297,1.4315,1.4324,1.4333,1.4219,1.4219,1.4218,0,0,1.4272,1.427,1.4298,1.4297,1.4295,1.4283,1.429,1.4282,1.4277,1.4303,1.4275,1.4288,1.431,1.431,1.4313,1.438,1.4357,1.4384,1.4425,1.4445,1.4453,1.446,1.4482,1.4491,1.4389,1.4389,1.4389,0,1.4314,1.4338,1.4315,1.4336,1.4341,1.4306,1.4334,1.4335,1.4337,1.434,1.4321,1.4346,1.4343,1.4377,1.4393,1.4397,1.4403,1.4384,1.4454,1.4461,1.4467,1.4488,1.4496,1.4392,1.4392,1.4391,1.4391,0,1.4388,1.4405,1.4429,1.443,1.4437,1.4462,1.4442,1.4452,1.4435,1.4425,1.4451,1.4446,1.4454,1.4461,1.4445,1.4491,1.4481,1.4458,1.4424,1.448,1.4499,1.4507,1.4397,1.4395,1.4394,1.4394,0,0,1.4492,1.4479,1.4488,1.4487,1.4482,1.4494,1.4517,1.4524,1.4532,1.4534,1.4551,1.4569,1.4547,1.4551,1.4535,1.4552,1.4603,1.4527,1.4526,1.454,1.4652,1.4668,1.4678,1.4588,1.459,1.4591,1.4651,0,1.4558,1.4595,1.4574,1.4614,1.4628,1.4595,1.4614,1.4612,1.4603,1.4613,1.4603,1.4616,1.4587,1.4588,1.4604,1.4594,1.4625,1.4589,1.4603,1.4604,1.4604,1.4688,1.4706,1.4763,1.4659,1.466,1.4661,0,1.464,1.4644,1.4685,1.4674,1.468,1.4697,1.4701,1.4712,1.4709,1.47,1.4703,1.4682,1.4702,1.4668,1.4695,1.4671,1.4675,1.4671,1.4673,1.4673,1.4635,1.4689,1.4781,1.4789,1.4673,1.4672,1.4671,0,1.4709,1.4726,1.4751,1.4752,1.4741,1.4754,1.475,1.4745,1.4749,1.4753,1.4755,1.4761,1.4764,1.4769,1.475,1.4727,1.4778,1.4743,1.4771,1.4771,1.4783,1.4782,1.4876,1.4788,1.4787,1.4787,1.4787,0,1.4785,1.4811,1.4782,1.4798,1.4825,1.4801,1.4829,1.4821,1.4817,1.483,1.4802,1.4815,1.4789,1.4799,1.4785,1.4808,1.481,1.4803,1.4798,1.4805,1.4806,1.4807,1.4802,1.479,1.4789,1.4789,1.4788,0,1.4867,1.4849,1.4875,1.4861,1.4859,1.4879,1.4868,1.4881,1.4869,1.4886,1.4889,1.487,1.488,1.4862,1.487,1.486,1.4892,1.4882,1.4893,1.4889,1.4917,1.4915,1.5014,1.5026,1.4931,1.4932,1.4933,0,1.4916,1.4935,1.4923,1.4929,1.4926,1.4938,1.4942,1.4918,1.4924,1.492,1.4934,1.4942,1.4947,1.4964,1.4951,1.4957,1.4946,1.498,1.4947,1.4952,1.4945,1.4944,1.4945,1.4987,1.4988,1.4989,1.499,0,1.5004,1.4993,1.5,1.5004,1.501,1.5012,1.5011,1.5018,1.4993,1.5,1.501,1.5014,1.5021,1.5028,1.5031,1.5026,1.5004,1.5001,1.5007,1.5014,1.5019,1.5015,1.4911,1.4999,1.4998,1.4997,1.4997,1.4996,1.507,1.5084,1.5077,1.5086,1.5083,1.5083,1.5094,1.5083,1.509,1.5094,1.508,1.5092,1.5086,1.5087,1.5084,1.5093,1.5078,1.5087,1.509,1.5092,1.5096,1.5018,1.5094,1.5093,1.5093,1.5093,1.5093,0,1.5155,1.5149,1.5156,1.5156,1.5162,1.514,1.5138,1.5145,1.5156,1.5152,1.5157,1.5167,1.5174,1.5161,1.5165,1.5174,1.5164,1.5176,1.5175,1.5174,1.511,1.5104,1.5184,1.5184,1.5184,1.5184,1.5184,1.5184,1.52,1.5223,1.5211,1.5231,1.5224,1.5236,1.5236,1.5236,1.5232,1.5245,1.525,1.5241,1.5233,1.5236,1.5241,1.5236,1.5239,1.5254,1.5247,1.5188,1.5179,1.517,1.5164,1.5255,1.5256,1.5309,1.531,1.531]}]]